Boulder City, NV

5:38 PM PST on November 13, 2019 (GMT -0800)
Boulder City

Weather History for KBVU - September, 2019

Change the Weather History Date:

Wednesday, September 4, 2019

  Actual Average (KLAS) Record (KLAS)
Temperature  
Mean Temperature 94 °F -  
Max Temperature 107 °F 98 °F 111 °F (1947)
Min Temperature 80 °F 71 °F 57 °F (1941)
Cooling Degree Days 28    
Growing Degree Days 44 (Base 50)    
Moisture  
Dew Point 48 °F    
Average Humidity 23    
Maximum Humidity 39    
Minimum Humidity 11    
Precipitation  
Precipitation 0.00 in - - ()
Sea Level Pressure  
Sea Level Pressure 29.89 in    
Wind  
Wind Speed 4 mph ()    
Max Wind Speed 22 mph    
Max Gust Speed 30 mph    
Visibility 10.0 miles    
Events      
Averages and records for this station are not official NWS values.
T = Trace of Precipitation, MM = Missing Value Source: Averaged Metar Reports

Daily Weather History Graph

Daily Weather History Graph

Search for Another Location

Airport or City:

Astronomy

Sep. 04, 2019 Rise Set
Actual Time 6:13 AM PDT 7:02 PM PDT
Civil Twilight 5:47 AM PDT 7:28 PM PDT
Nautical Twilight 5:16 AM PDT 7:59 PM PDT
Astronomical Twilight 4:44 AM PDT 8:31 PM PDT
Moon 12:08 PM PDT (9/4) 10:52 PM PDT (9/4)
Length of Visible Light 13h 41m
Length of Day
12h 49m
Waxing Crescent, 36% of the Moon is Illuminated
Sep 4
Waxing Crescent
Sep 5
First Quarter
Sep 13
Full
Sep 21
Last Quarter
Sep 28
New

Hourly Weather History & Observations

Time (PDT) Temp. Heat Index Dew Point Humidity Pressure Visibility Wind Dir Wind Speed Gust Speed Precip Events Conditions
12:15 AM 86.0 °F - 48.2 °F 27% 29.88 in 10.0 mi West 4.6 mph - N/A   Clear
12:35 AM 86.0 °F - 51.8 °F 31% 29.89 in 10.0 mi Calm Calm - N/A   Clear
12:55 AM 84.2 °F - 50.0 °F 30% 29.88 in 10.0 mi NW 6.9 mph - N/A   Clear
1:15 AM 84.2 °F - 48.2 °F 29% 29.88 in 10.0 mi NW 5.8 mph - N/A   Clear
1:55 AM 84.2 °F - 48.2 °F 29% 29.88 in 10.0 mi NW 6.9 mph - N/A   Clear
2:15 AM 84.2 °F - 51.8 °F 33% 29.88 in 10.0 mi NNW 5.8 mph - N/A   Clear
2:35 AM 82.4 °F - 50.0 °F 32% 29.88 in 10.0 mi NW 5.8 mph - N/A   Partly Cloudy
2:55 AM 82.4 °F - 51.8 °F 35% 29.88 in 10.0 mi Calm Calm - N/A   Partly Cloudy
3:15 AM 84.2 °F - 50.0 °F 30% 29.88 in 10.0 mi Calm Calm - N/A   Clear
3:35 AM 82.4 °F - 51.8 °F 35% 29.89 in 10.0 mi Calm Calm - N/A   Clear
3:55 AM 80.6 °F - 51.8 °F 37% 29.89 in 10.0 mi NW 3.5 mph - N/A   Clear
4:15 AM 82.4 °F - 50.0 °F 32% 29.89 in 10.0 mi Calm Calm - N/A   Partly Cloudy
4:35 AM 82.4 °F - 50.0 °F 32% 29.89 in 10.0 mi Calm Calm - N/A   Partly Cloudy
4:55 AM 80.6 °F - 51.8 °F 37% 29.89 in 10.0 mi Calm Calm - N/A   Clear
5:15 AM 80.6 °F 80.3 °F 53.6 °F 39% 29.90 in 10.0 mi Calm Calm - N/A   Partly Cloudy
5:35 AM 80.6 °F - 51.8 °F 37% 29.90 in 10.0 mi Calm Calm - N/A   Partly Cloudy
5:55 AM 80.6 °F - 50.0 °F 34% 29.90 in 10.0 mi Calm Calm - N/A   Clear
6:15 AM 80.6 °F - 51.8 °F 37% 29.91 in 10.0 mi Calm Calm - N/A   Clear
6:35 AM 80.6 °F - 50.0 °F 34% 29.91 in 10.0 mi Calm Calm - N/A   Clear
6:55 AM 80.6 °F - 51.8 °F 37% 29.92 in 10.0 mi Calm Calm - N/A   Clear
7:15 AM 80.6 °F - 51.8 °F 37% 29.92 in 10.0 mi Calm Calm - N/A   Clear
7:35 AM 84.2 °F - 50.0 °F 30% 29.93 in 10.0 mi Calm Calm - N/A   Clear
7:55 AM 86.0 °F - 50.0 °F 29% 29.93 in 10.0 mi Calm Calm - N/A   Clear
8:15 AM 86.0 °F - 48.2 °F 27% 29.94 in 10.0 mi Calm Calm - N/A   Clear
8:35 AM 87.8 °F - 50.0 °F 27% 29.94 in 10.0 mi Calm Calm - N/A   Clear
8:55 AM 89.6 °F - 48.2 °F 24% 29.94 in 10.0 mi Calm Calm - N/A   Clear
9:15 AM 91.4 °F - 48.2 °F 23% 29.94 in 10.0 mi Calm Calm - N/A   Clear
9:35 AM 93.2 °F - 48.2 °F 21% 29.94 in 10.0 mi Calm Calm - N/A   Clear
9:55 AM 95.0 °F - 50.0 °F 22% 29.95 in 10.0 mi East 3.5 mph - N/A   Clear
10:15 AM 96.8 °F - 50.0 °F 20% 29.95 in 10.0 mi NE 4.6 mph - N/A   Clear
10:35 AM 98.6 °F - 50.0 °F 19% 29.94 in 10.0 mi NNE 6.9 mph - N/A   Clear
10:55 AM 98.6 °F - 50.0 °F 19% 29.94 in 10.0 mi Variable 5.8 mph - N/A   Clear
11:15 AM 100.4 °F - 48.2 °F 17% 29.94 in 10.0 mi Variable 3.5 mph - N/A   Clear
11:35 AM 100.4 °F - 48.2 °F 17% 29.93 in 10.0 mi Calm Calm - N/A   Clear
11:55 AM 102.2 °F - 48.2 °F 16% 29.92 in 10.0 mi Variable 5.8 mph - N/A   Clear
12:15 PM 102.2 °F - 46.4 °F 15% 29.92 in 10.0 mi Variable 6.9 mph - N/A   Clear
12:35 PM 102.2 °F - 46.4 °F 15% 29.91 in 10.0 mi Variable 5.8 mph - N/A   Clear
12:55 PM 102.2 °F - 44.6 °F 14% 29.91 in 10.0 mi ENE 6.9 mph - N/A   Clear
1:15 PM 104.0 °F - 44.6 °F 13% 29.90 in 10.0 mi ENE 11.5 mph - N/A   Clear
1:35 PM 104.0 °F - 46.4 °F 14% 29.89 in 10.0 mi NE 11.5 mph - N/A   Clear
1:55 PM 104.0 °F - 46.4 °F 14% 29.87 in 10.0 mi North 10.4 mph - N/A   Clear
2:15 PM 105.8 °F - 41.0 °F 11% 29.87 in 10.0 mi Variable 6.9 mph - N/A   Clear
2:35 PM 105.8 °F - 44.6 °F 13% 29.86 in 10.0 mi NNE 9.2 mph - N/A   Clear
2:55 PM 105.8 °F - 44.6 °F 13% 29.85 in 10.0 mi Calm Calm 11.5 mph N/A   Clear
3:15 PM 107.6 °F - 44.6 °F 12% 29.84 in 10.0 mi NE 9.2 mph 18.4 mph N/A   Clear
3:35 PM 105.8 °F - 42.8 °F 12% 29.83 in 10.0 mi Variable 6.9 mph 15.0 mph N/A   Clear
3:55 PM 105.8 °F - 44.6 °F 13% 29.83 in 10.0 mi ENE 9.2 mph - N/A   Clear
4:15 PM 105.8 °F - 44.6 °F 13% 29.82 in 10.0 mi NNE 9.2 mph - N/A   Clear
4:35 PM 105.8 °F - 44.6 °F 13% 29.82 in 10.0 mi NE 9.2 mph - N/A   Clear
4:55 PM 105.8 °F - 42.8 °F 12% 29.82 in 10.0 mi ESE 10.4 mph - N/A   Clear
5:15 PM 105.8 °F - 42.8 °F 12% 29.82 in 10.0 mi East 10.4 mph - N/A   Clear
5:35 PM 105.8 °F - 42.8 °F 12% 29.82 in 10.0 mi ESE 12.7 mph - N/A   Clear
5:55 PM 105.8 °F - 42.8 °F 12% 29.82 in 10.0 mi East 11.5 mph - N/A   Clear
6:15 PM 102.2 °F - 46.4 °F 15% 29.84 in 10.0 mi ESE 12.7 mph 25.3 mph N/A   Clear
6:35 PM 100.4 °F - 44.6 °F 15% 29.85 in 10.0 mi SSE 9.2 mph - N/A   Clear
6:55 PM 98.6 °F - 46.4 °F 17% 29.87 in 10.0 mi SW 10.4 mph 23.0 mph N/A   Clear
7:15 PM 98.6 °F - 46.4 °F 17% 29.87 in 10.0 mi SSW 8.1 mph - N/A   Clear
7:35 PM 96.8 °F - 46.4 °F 18% 29.88 in 10.0 mi SSW 6.9 mph - N/A   Clear
7:55 PM 96.8 °F - 46.4 °F 18% 29.89 in 10.0 mi WSW 9.2 mph - N/A   Clear
8:15 PM 95.0 °F - 46.4 °F 19% 29.89 in 10.0 mi WSW 6.9 mph - N/A   Clear
8:35 PM 95.0 °F - 46.4 °F 19% 29.89 in 10.0 mi West 4.6 mph - N/A   Clear
8:55 PM 93.2 °F - 51.8 °F 24% 29.90 in 10.0 mi Calm Calm - N/A   Clear
9:15 PM 93.2 °F - 48.2 °F 21% 29.91 in 10.0 mi East 5.8 mph - N/A   Clear
9:35 PM 91.4 °F - 50.0 °F 24% 29.92 in 10.0 mi ESE 5.8 mph - N/A   Partly Cloudy
9:55 PM 93.2 °F - 48.2 °F 21% 29.92 in 10.0 mi SSW 6.9 mph - N/A   Clear
10:15 PM 91.4 °F - 50.0 °F 24% 29.92 in 10.0 mi Calm Calm - N/A   Clear
10:35 PM 87.8 °F 85.7 °F 53.6 °F 31% 29.92 in 10.0 mi NE 9.2 mph - N/A   Clear
10:55 PM 89.6 °F - 51.8 °F 27% 29.93 in 10.0 mi East 8.1 mph - N/A   Clear
11:15 PM 93.2 °F - 46.4 °F 20% 29.94 in 10.0 mi SE 8.1 mph - N/A   Clear
11:35 PM 93.2 °F - 46.4 °F 20% 29.95 in 10.0 mi South 21.9 mph 29.9 mph N/A   Mostly Cloudy
11:55 PM 89.6 °F - 51.8 °F 27% 29.94 in 10.0 mi SW 18.4 mph 28.8 mph N/A   Overcast